Weather History for KSVN - July, 2013

Change the Weather History Date:

Thursday, July 11, 2013

  Actual Average Record
Temperature  
Mean Temperature 81 °F -  
Max Temperature 88 °F 89 °F 96 °F (2000)
Min Temperature 75 °F 71 °F 69 °F (2006)
Cooling Degree Days 16    
Growing Degree Days 31 (Base 50)    
Moisture  
Dew Point 74 °F    
Average Humidity 80    
Maximum Humidity 91    
Minimum Humidity 63    
Precipitation  
Precipitation 0.00 in - - ()
Sea Level Pressure  
Sea Level Pressure 29.95 in    
Wind  
Wind Speed 6 mph (SSW)    
Max Wind Speed 15 mph    
Max Gust Speed 21 mph    
Visibility 10 miles    
Events Rain , Thunderstorm    
Averages and records for this station are not official NWS values.
T = Trace of Precipitation, MM = Missing Value Source: NWS Daily Summary

Daily Weather History Graph

Daily Weather History Graph

Search for Another Location

Airport or City:

Trip Planner

Search our weather history database for the weather conditions in past years. The results will help you decide how hot, cold, wet, or windy it might be!

Date:

Astronomy

Jul. 11, 2013 Rise Set
Actual Time 6:27 AM EDT 8:32 PM EDT
Civil Twilight 5:59 AM EDT 9:00 PM EDT
Nautical Twilight 5:25 AM EDT 9:34 PM EDT
Astronomical Twilight 4:48 AM EDT 10:10 PM EDT
Moon 9:30 AM EDT (7/11) 10:28 PM EDT (7/11)
Length of Visible Light 15h 01m
Length of Day
14h 05m
Waxing Crescent, 10% of the Moon is Illuminated
Jul 11
Waxing Crescent
Jul 15
First Quarter
Jul 22
Full
Jul 29
Last Quarter
Aug 6
New

Hourly Weather History & Observations

Time (EDT) Temp. Heat Index Dew Point Humidity Pressure Visibility Wind Dir Wind Speed Gust Speed Precip Events Conditions
12:58 AM 78.4 °F - 73.8 °F 85% 30.01 in 10.0 mi South 4.6 mph - N/A   Partly Cloudy
1:38 AM 78.8 °F - 73.4 °F 83% 30.00 in 10.0 mi South 4.6 mph - N/A   Mostly Cloudy
1:58 AM 79.2 °F - 73.6 °F 83% 30.01 in 10.0 mi South 5.8 mph - N/A   Mostly Cloudy
2:03 AM 78.8 °F - 73.4 °F 83% 30.00 in 10.0 mi SSW 5.8 mph - N/A   Mostly Cloudy
2:58 AM 77.7 °F - 73.4 °F 86% 30.00 in 10.0 mi South 3.5 mph - N/A   Partly Cloudy
3:58 AM 76.8 °F - 73.2 °F 89% 30.00 in 10.0 mi SSW 3.5 mph - N/A   Partly Cloudy
4:58 AM 77.0 °F - 73.2 °F 88% 29.99 in 10.0 mi SSW 5.8 mph - N/A   Clear
5:58 AM 76.8 °F - 73.2 °F 89% 29.98 in 10.0 mi SSW 3.5 mph - N/A   Clear
6:58 AM 75.9 °F - 73.2 °F 91% 29.99 in 10.0 mi South 2.3 mph - N/A   Clear
7:58 AM 78.4 °F - 74.7 °F 88% 29.99 in 10.0 mi SSW 4.6 mph - N/A   Clear
8:02 AM 78.8 °F - 75.2 °F 89% 29.98 in 10.0 mi SW 5.8 mph - N/A   Scattered Clouds
8:58 AM 81.1 °F 86.6 °F 73.9 °F 79% 29.99 in 10.0 mi SW 9.2 mph - N/A   Partly Cloudy
9:58 AM 82.8 °F 88.7 °F 73.2 °F 73% 30.00 in 10.0 mi SW 6.9 mph - N/A   Partly Cloudy
10:58 AM 85.3 °F 92.6 °F 73.8 °F 68% 29.99 in 10.0 mi SSW 6.9 mph - N/A   Scattered Clouds
11:58 AM 86.9 °F 94.5 °F 73.6 °F 64% 29.98 in 10.0 mi South 9.2 mph - N/A   Partly Cloudy
12:58 PM 86.7 °F 94.6 °F 73.8 °F 65% 29.97 in 10.0 mi Variable 6.9 mph - N/A   Mostly Cloudy
1:58 PM 87.1 °F 96.8 °F 75.2 °F 68% 29.95 in 10.0 mi SE 11.5 mph - N/A   Scattered Clouds
2:55 PM 84.2 °F 94.1 °F 77.0 °F 79% 29.93 in 10.0 mi SE 11.5 mph - N/A Rain Light Rain
2:58 PM 84.9 °F 95.3 °F 76.8 °F 77% 29.94 in 10.0 mi SSE 10.4 mph - 0.00 in Rain Light Rain
3:10 PM 84.2 °F 96.1 °F 78.8 °F 84% 29.92 in 10.0 mi South 12.7 mph 17.3 mph N/A   Clear
3:58 PM 87.8 °F 100.2 °F 77.4 °F 71% 29.91 in 10.0 mi SSE 11.5 mph 20.7 mph 0.00 in Thunderstorm Partly Cloudy
4:58 PM 86.5 °F 93.3 °F 72.5 °F 63% 29.89 in 10.0 mi South 11.5 mph - N/A   Clear
5:58 PM 86.0 °F 95.1 °F 75.0 °F 70% 29.88 in 10.0 mi SSE 10.4 mph - N/A   Clear
6:58 PM 84.2 °F 90.3 °F 72.7 °F 68% 29.89 in 10.0 mi South 10.4 mph - N/A   Clear
7:58 PM 82.4 °F 87.7 °F 72.7 °F 72% 29.90 in 10.0 mi South 5.8 mph - N/A   Partly Cloudy
8:58 PM 81.5 °F 87.6 °F 74.7 °F 80% 29.90 in 10.0 mi South 6.9 mph - N/A   Mostly Cloudy
9:43 PM 80.6 °F 86.2 °F 75.2 °F 84% 29.89 in 10.0 mi SSW 5.8 mph - N/A   Mostly Cloudy
9:50 PM 80.6 °F 86.2 °F 75.2 °F 84% 29.90 in 10.0 mi South 8.1 mph - N/A Thunderstorm Thunderstorm
9:58 PM 81.5 °F 87.6 °F 74.8 °F 80% 29.91 in 10.0 mi South 10.4 mph 17.3 mph N/A Thunderstorm Thunderstorm
10:18 PM 82.4 °F 88.2 °F 73.4 °F 74% 29.90 in 10.0 mi South 15.0 mph 18.4 mph N/A Thunderstorm Overcast
10:33 PM 80.6 °F 85.4 °F 73.4 °F 79% 29.90 in 10.0 mi West 9.2 mph - N/A Thunderstorm Overcast
10:46 PM 78.8 °F - 73.4 °F 83% 29.91 in 9.0 mi West 5.8 mph - N/A   Light Drizzle
10:55 PM 77.0 °F - 73.4 °F 89% 29.92 in 10.0 mi West 3.5 mph - N/A   Mostly Cloudy
10:58 PM 77.7 °F - 73.6 °F 87% 29.93 in 10.0 mi West 2.3 mph - 0.00 in   Mostly Cloudy
11:03 PM 77.0 °F - 73.4 °F 89% 29.92 in 10.0 mi West 3.5 mph - N/A Rain Light Rain
11:23 PM 77.0 °F - 73.4 °F 89% 29.93 in 10.0 mi Variable 5.8 mph - N/A   Clear
11:38 PM 77.0 °F - 71.6 °F 83% 29.92 in 10.0 mi SSW 8.1 mph - N/A Rain Light Rain
11:50 PM 75.2 °F - 71.6 °F 89% 29.92 in 10.0 mi SW 6.9 mph - N/A   Clear
11:58 PM 75.7 °F - 72.0 °F 88% 29.92 in 10.0 mi SSW 5.8 mph - 0.00 in   Clear